Weather Roundup
Issued by NWS

Home | Current Version | Previous Version | Graphics & Text | Print | Product List | Glossary Off
Versions: 1 2 3 4 5 6 7 8 9 10 11 12 13 14 15 16 17 18 19 20 21 22 23 24 25 26 27 28 29 30 31 32 33 34 35 36 37 38 39 40 41 42 43 44 45 46 47 48 49 50

000
NZUS93 KARX 251459
HRRWXR

CURRENT HOURLY OBSERVATIONS ACROSS
MUCH OF THE UPPER MISSISSIPPI VALLEY
NATIONAL WEATHER SERVICE LA CROSSE WI
1000 AM CDT MON MAY 25 2015


...SOUTHEAST MINNESOTA...


CITY           SKY/WX    TMP DP  RH WIND       PRES   REMARKS
ROCHESTER      CLOUDY    64  60  87 SW18      29.75R
ROCHESTER/MAYO CLOUDY    63  63  99 SW12G18   29.73S
WINONA         CLOUDY    66  63  88 SW6       29.72R
AUSTIN         CLOUDY    63  61  94 SW14      29.75S
ALBERT LEA     CLOUDY    63  61  94 SW7G17    29.75R
DODGE CENTER   CLOUDY    63  61  94 SW17      29.73S
PRESTON        CLOUDY    63  59  87 SW14G20   29.76R
OWATONNA       CLOUDY    64  61  88 SW14      29.73S
FARIBAULT      CLOUDY    63  61  94 SW9G16    29.72S
$$

...ELSEWHERE IN MINNESOTA...


CITY           SKY/WX    TMP DP  RH WIND       PRES   REMARKS
MINNEAPOLIS    CLOUDY    61  59  93 SW13      29.68R
INTNL FALLS    CLOUDY    61  53  75 CALM      29.79S
DULUTH         RAIN      59  56  89 E21G29    29.69F FOG
RED WING       CLOUDY    63  63 100 SW7       29.69R
REDWOOD FALLS  CLOUDY    62  58  86 W9        29.69F
MANKATO        CLOUDY    61  57  88 SW13      29.72S
WORTHINGTON    CLOUDY    61  54  77 W12       29.76R
FAIRMONT       CLOUDY    63  54  72 SW14      29.75R
$$

...SOUTHWEST WISCONSIN...


CITY           SKY/WX    TMP DP  RH WIND       PRES   REMARKS
LA CROSSE      LGT RAIN  69  62  78 SW10      29.73R
PRAIRIE DU CHI CLOUDY    65  62  89 S7        29.78R
BOSCOBEL       LGT RAIN  66  63  90 SW9       29.78R
LONE ROCK      NOT AVBL
PLATTEVILLE    CLOUDY    65  64  96 SW15G21   29.80S
FORT MC COY    NOT AVBL
CAMP DOUGLAS   PTSUNNY   66  66 100 SW13G20   29.73R
VIROQUA        CLOUDY    64  64 100 SW13      29.76R
WIS DELLS      CLOUDY    67  63  87 SW13      29.75R
$$

...ELSEWHERE IN WISCONSIN...


CITY           SKY/WX    TMP DP  RH WIND       PRES   REMARKS
MILWAUKEE      LGT RAIN  68  64  87 SW22      29.80R FOG
MADISON        PTSUNNY   69  62  78 SW8G18    29.77R
GREEN BAY      CLOUDY    67  64  90 S16       29.71F FOG
EAU CLAIRE     CLOUDY    63  60  90 SW7       29.69R
BLACK RVR FLS  CLOUDY    66  66 100 SW6       29.71S
MEDFORD        RAIN      62  61  99 S8        29.70S
WAUSAU         LGT RAIN  61  60  97 E3        29.70S FOG
WIS RAPIDS     LGT RAIN  65  62  90 SW6       29.72S
MARSHFIELD     LGT RAIN  64  62  93 SW9       29.71S
RICE LAKE      DRIZZLE   58  56  94 S5        29.70S
$$

...NORTHEAST IOWA...


CITY           SKY/WX    TMP DP  RH WIND       PRES   REMARKS
DECORAH        CLOUDY    66  64  94 SW8G17    29.77R
MASON CITY     CLOUDY    65  61  87 SW13      29.79R
CHARLES CITY   CLOUDY    64  64 100 SW12      29.79R
OELWEIN        CLOUDY    64  64 100 SW14G20   29.81R
$$

...ELSEWHERE IN IOWA...


CITY           SKY/WX    TMP DP  RH WIND       PRES   REMARKS
DES MOINES     PTSUNNY   69  61  75 SW18G25   29.82F
IOWA CITY      CLOUDY    67  63  87 SW13G21   29.88R
FORT DODGE     CLOUDY    66  63  88 SW12G17   29.80S
$$

...NORTHERN ILLINOIS...


CITY           SKY/WX    TMP DP  RH WIND       PRES   REMARKS
CHICAGO-OHARE  LGT RAIN  70  64  81 SW18G31   29.85S
CHICAGO-MIDWAY PTSUNNY   74  66  76 SW15      29.86S
MOLINE         CLOUDY    69  62  78 SW17G23   29.87R
ROCKFORD       PTSUNNY   71  62  73 SW13G24   29.84S
PEORIA         CLOUDY    71  63  75 W13       29.92R
$$

NOTE: "FAIR" INDICATES FEW OR NO CLOUDS BELOW 12,000 FEET WITH NO
SIGNIFICANT WEATHER AND/OR OBSTRUCTIONS TO VISIBILITY. WIND
SPEEDS ARE IN MILES-PER-HOUR.



USA.gov is the U.S. government's official web portal to all federal, state and local government web resources and services.